Year,Month,Day,Hour,Minute,Value (Times are PST for temperature in C)
2018,11,21,00,00,8.60
2018,11,21,00,01,8.60
2018,11,21,00,02,8.60
2018,11,21,00,03,8.60
2018,11,21,00,04,8.60
2018,11,21,00,05,8.60
2018,11,21,00,06,8.60
2018,11,21,00,07,8.60
2018,11,21,00,08,8.60
2018,11,21,00,09,8.60
2018,11,21,00,10,8.60
2018,11,21,00,11,8.60
2018,11,21,00,12,8.50
2018,11,21,00,13,8.50
2018,11,21,00,14,8.50
2018,11,21,00,15,8.40
2018,11,21,00,16,8.40
2018,11,21,00,17,8.40
2018,11,21,00,18,8.40
2018,11,21,00,19,8.40
2018,11,21,00,20,8.40
2018,11,21,00,21,8.40
2018,11,21,00,22,8.40
2018,11,21,00,23,8.40
2018,11,21,00,24,8.40
2018,11,21,00,25,8.40
2018,11,21,00,26,8.40
2018,11,21,00,27,8.40
2018,11,21,00,28,8.30
2018,11,21,00,29,8.30
2018,11,21,00,30,8.30
2018,11,21,00,31,8.30
2018,11,21,00,32,8.30
2018,11,21,00,33,8.30
2018,11,21,00,34,8.30
2018,11,21,00,35,8.40
2018,11,21,00,36,8.40
2018,11,21,00,37,8.40
2018,11,21,00,38,8.40
2018,11,21,00,39,8.40
2018,11,21,00,40,8.40
2018,11,21,00,41,8.40
2018,11,21,00,42,8.40
2018,11,21,00,43,8.40
2018,11,21,00,44,8.40
2018,11,21,00,45,8.40
2018,11,21,00,46,8.40
2018,11,21,00,47,8.30
2018,11,21,00,48,8.30
2018,11,21,00,49,8.30
2018,11,21,00,50,8.30
2018,11,21,00,51,8.30
2018,11,21,00,52,8.30
2018,11,21,00,53,8.40
2018,11,21,00,54,8.40
2018,11,21,00,55,8.40
2018,11,21,00,56,8.40
2018,11,21,00,57,8.40
2018,11,21,00,58,8.40
2018,11,21,00,59,8.40
2018,11,21,01,00,8.40
2018,11,21,01,01,8.40
2018,11,21,01,02,8.50
2018,11,21,01,03,8.50
2018,11,21,01,04,8.50
2018,11,21,01,05,8.50
2018,11,21,01,06,8.50
2018,11,21,01,07,8.50
2018,11,21,01,08,8.50
2018,11,21,01,09,8.50
2018,11,21,01,10,8.50
2018,11,21,01,11,8.50
2018,11,21,01,12,8.50
2018,11,21,01,13,8.40
2018,11,21,01,14,8.40
2018,11,21,01,15,8.40
2018,11,21,01,16,8.40
2018,11,21,01,17,8.40
2018,11,21,01,18,8.30
2018,11,21,01,19,8.30
2018,11,21,01,20,8.30
2018,11,21,01,21,8.30
2018,11,21,01,22,8.30
2018,11,21,01,23,8.30
2018,11,21,01,24,8.30
2018,11,21,01,25,8.20
2018,11,21,01,26,8.20
2018,11,21,01,27,8.30
2018,11,21,01,28,8.30
2018,11,21,01,29,8.20
2018,11,21,01,30,8.20
2018,11,21,01,31,8.20
2018,11,21,01,32,8.20
2018,11,21,01,33,8.10
2018,11,21,01,34,8.10
2018,11,21,01,35,8.10
2018,11,21,01,36,8.00
2018,11,21,01,37,8.00
2018,11,21,01,38,8.00
2018,11,21,01,39,8.00
2018,11,21,01,40,8.10
2018,11,21,01,41,8.10
2018,11,21,01,42,8.10
2018,11,21,01,43,8.10
2018,11,21,01,44,8.10
2018,11,21,01,45,8.20
2018,11,21,01,46,8.20
2018,11,21,01,47,8.20
2018,11,21,01,48,8.30
2018,11,21,01,49,8.30
2018,11,21,01,50,8.30
2018,11,21,01,51,8.30
2018,11,21,01,52,8.30
2018,11,21,01,53,8.30
2018,11,21,01,54,8.30
2018,11,21,01,55,8.30
2018,11,21,01,56,8.40
2018,11,21,01,57,8.30
2018,11,21,01,58,8.30
2018,11,21,01,59,8.30
2018,11,21,02,00,8.40
2018,11,21,02,01,8.30
2018,11,21,02,02,8.30
2018,11,21,02,03,8.30
2018,11,21,02,04,8.30
2018,11,21,02,05,8.30
2018,11,21,02,06,8.30
2018,11,21,02,07,8.30
2018,11,21,02,08,8.30
2018,11,21,02,09,8.30
2018,11,21,02,10,8.30
2018,11,21,02,11,8.30
2018,11,21,02,12,8.30
2018,11,21,02,13,8.30
2018,11,21,02,14,8.30
2018,11,21,02,15,8.30
2018,11,21,02,16,8.30
2018,11,21,02,17,8.30
2018,11,21,02,18,8.30
2018,11,21,02,19,8.30
2018,11,21,02,20,8.30
2018,11,21,02,21,8.30
2018,11,21,09,42,9.60
2018,11,21,09,43,9.60
2018,11,21,09,44,9.60
2018,11,21,09,45,9.60
2018,11,21,09,46,9.60
2018,11,21,09,47,9.60
2018,11,21,09,48,9.60
2018,11,21,09,49,9.60
2018,11,21,09,50,9.70
2018,11,21,09,51,9.70
2018,11,21,09,52,9.70
2018,11,21,09,53,9.80
2018,11,21,09,54,9.80
2018,11,21,09,55,9.80
2018,11,21,09,56,9.80
2018,11,21,09,57,9.90
2018,11,21,09,58,9.90
2018,11,21,09,59,9.90
2018,11,21,10,00,9.90
2018,11,21,10,01,9.90
2018,11,21,10,02,9.90
2018,11,21,10,03,9.90
2018,11,21,10,04,9.90
2018,11,21,10,05,9.90
2018,11,21,10,06,9.90
2018,11,21,10,07,9.90
2018,11,21,10,08,9.90
2018,11,21,10,09,9.90
2018,11,21,10,10,9.90
2018,11,21,10,11,9.90
2018,11,21,10,12,9.90
2018,11,21,10,13,9.90
2018,11,21,10,14,9.90
2018,11,21,10,15,9.90
2018,11,21,10,16,9.90
2018,11,21,10,17,9.90
2018,11,21,10,18,9.90
2018,11,21,10,19,9.90
2018,11,21,10,20,10.00
2018,11,21,10,21,10.00
2018,11,21,10,22,10.00
2018,11,21,10,23,10.00
2018,11,21,10,24,10.00
2018,11,21,10,25,10.10
2018,11,21,10,26,10.10
2018,11,21,10,27,10.10
2018,11,21,10,28,10.10
2018,11,21,10,29,10.10
2018,11,21,10,30,10.10
2018,11,21,10,31,10.10
2018,11,21,10,32,10.20
2018,11,21,10,33,10.20
2018,11,21,10,34,10.30
2018,11,21,10,35,10.30
2018,11,21,10,36,10.40
2018,11,21,10,37,10.40
2018,11,21,10,38,10.50
2018,11,21,10,39,10.50
2018,11,21,10,40,10.60
2018,11,21,10,41,10.60
2018,11,21,10,42,10.70
2018,11,21,10,43,10.70
2018,11,21,10,44,10.80
2018,11,21,10,45,10.80
2018,11,21,10,46,10.80
2018,11,21,10,47,10.90
2018,11,21,10,48,10.90
2018,11,21,10,49,10.90
2018,11,21,10,50,11.00
2018,11,21,10,51,11.00
2018,11,21,10,52,11.10
2018,11,21,10,53,11.10
2018,11,21,10,54,11.10
2018,11,21,10,55,11.10
2018,11,21,10,56,11.20
2018,11,21,10,57,11.20
2018,11,21,10,58,11.20
2018,11,21,10,59,11.20
2018,11,21,11,00,11.30
2018,11,21,11,01,11.30
2018,11,21,11,02,11.30
2018,11,21,11,03,11.30
2018,11,21,11,04,11.30
2018,11,21,11,05,11.30
2018,11,21,11,06,11.30
2018,11,21,11,07,11.30
2018,11,21,11,08,11.20
2018,11,21,11,09,11.20
2018,11,21,11,10,11.20
2018,11,21,11,11,11.20
2018,11,21,11,12,11.20
2018,11,21,11,13,11.10
2018,11,21,11,14,11.10
2018,11,21,11,15,11.10
2018,11,21,11,16,11.00
2018,11,21,11,17,11.00
2018,11,21,11,18,11.00
2018,11,21,11,19,11.00
2018,11,21,11,20,10.90
2018,11,21,11,21,10.90
2018,11,21,11,22,10.90
2018,11,21,11,23,10.90
2018,11,21,11,24,10.90
2018,11,21,11,25,11.00
2018,11,21,11,26,11.00
2018,11,21,11,27,11.10
2018,11,21,11,28,11.10
2018,11,21,11,29,11.10
2018,11,21,11,30,11.20
2018,11,21,11,31,11.20
2018,11,21,11,32,11.20
2018,11,21,11,33,11.30
2018,11,21,11,34,11.30
2018,11,21,11,35,11.30
2018,11,21,11,36,11.30
2018,11,21,11,37,11.30
2018,11,21,11,38,11.20
2018,11,21,11,39,11.20
2018,11,21,11,40,11.20
2018,11,21,11,41,11.20
2018,11,21,11,42,11.20
2018,11,21,11,43,11.10
2018,11,21,11,44,11.10
2018,11,21,11,45,11.10
2018,11,21,11,46,11.00
2018,11,21,11,47,11.00
2018,11,21,11,48,10.90
2018,11,21,11,49,10.90
2018,11,21,11,50,10.90
2018,11,21,11,51,10.80
2018,11,21,11,52,10.80
2018,11,21,11,53,10.80
2018,11,21,11,54,10.80
2018,11,21,11,55,10.80
2018,11,21,11,56,10.70
2018,11,21,11,57,10.70
2018,11,21,11,58,10.70
2018,11,21,11,59,10.70
2018,11,21,12,00,10.70
2018,11,21,12,01,10.70
2018,11,21,12,02,10.70
2018,11,21,12,03,10.70
2018,11,21,12,04,10.70
2018,11,21,12,05,10.70
2018,11,21,12,06,10.70
2018,11,21,12,07,10.70
2018,11,21,12,08,10.70
2018,11,21,12,09,10.70
2018,11,21,12,10,10.60
2018,11,21,12,11,10.70
2018,11,21,12,12,10.60
2018,11,21,12,13,10.60
2018,11,21,12,14,10.60
2018,11,21,12,15,10.60
2018,11,21,12,16,10.60
2018,11,21,12,17,10.60
2018,11,21,12,18,10.60
2018,11,21,12,19,10.60
2018,11,21,12,20,10.60
2018,11,21,12,21,10.60
2018,11,21,12,22,10.60
2018,11,21,12,23,10.60
2018,11,21,12,24,10.60
2018,11,21,12,25,10.60
2018,11,21,12,26,10.60
2018,11,21,12,27,10.60
2018,11,21,12,28,10.60
2018,11,21,12,29,10.60
2018,11,21,12,30,10.60
2018,11,21,12,31,10.70
2018,11,21,12,32,10.70
2018,11,21,12,33,10.70
2018,11,21,12,34,10.70
2018,11,21,12,35,10.70
2018,11,21,12,36,10.70
2018,11,21,12,37,10.60
2018,11,21,12,38,10.60
2018,11,21,12,39,10.60
2018,11,21,12,40,10.60
2018,11,21,12,41,10.60
2018,11,21,12,42,10.60
2018,11,21,12,43,10.60
2018,11,21,12,44,10.50
2018,11,21,12,45,10.50
2018,11,21,12,46,10.50
2018,11,21,12,47,10.50
2018,11,21,12,48,10.50
2018,11,21,12,49,10.40
2018,11,21,12,50,10.40
2018,11,21,12,51,10.40
2018,11,21,12,52,10.40
2018,11,21,12,53,10.40
2018,11,21,12,54,10.40
2018,11,21,12,55,10.40
2018,11,21,12,56,10.40
2018,11,21,12,57,10.40
2018,11,21,12,58,10.40
2018,11,21,12,59,10.40
2018,11,21,13,00,10.40
2018,11,21,13,01,10.40
2018,11,21,13,02,10.40
2018,11,21,13,03,10.40
2018,11,21,13,04,10.40
2018,11,21,13,05,10.40
2018,11,21,13,06,10.40
2018,11,21,13,07,10.40
2018,11,21,13,08,10.40
2018,11,21,13,09,10.40
2018,11,21,13,10,10.40
2018,11,21,13,11,10.40
2018,11,21,13,12,10.40
2018,11,21,13,13,10.50
2018,11,21,13,14,10.50
2018,11,21,13,15,10.50
2018,11,21,13,16,10.50
2018,11,21,13,17,10.50
2018,11,21,13,18,10.50
2018,11,21,13,19,10.50
2018,11,21,13,20,10.50
2018,11,21,13,21,10.60
2018,11,21,13,22,10.60
2018,11,21,13,23,10.60
2018,11,21,13,24,10.60
2018,11,21,13,25,10.60
2018,11,21,13,26,10.60
2018,11,21,13,27,10.60
2018,11,21,13,28,10.60
2018,11,21,13,29,10.60
2018,11,21,13,30,10.60
2018,11,21,13,31,10.60
2018,11,21,13,32,10.60
2018,11,21,13,33,10.70
2018,11,21,13,34,10.70
2018,11,21,13,35,10.70
2018,11,21,13,36,10.70
2018,11,21,13,37,10.70
2018,11,21,13,38,10.70
2018,11,21,13,39,10.70
2018,11,21,13,40,10.70
2018,11,21,13,41,10.70
2018,11,21,13,42,10.70
2018,11,21,13,43,10.70
2018,11,21,13,44,10.70
2018,11,21,13,45,10.70
2018,11,21,13,46,10.70
2018,11,21,13,47,10.70
2018,11,21,13,48,10.70
2018,11,21,13,49,10.70
2018,11,21,13,50,10.70
2018,11,21,13,51,10.70
2018,11,21,13,52,10.70
2018,11,21,13,53,10.70
2018,11,21,13,54,10.70
2018,11,21,13,55,10.70
2018,11,21,13,56,10.70
2018,11,21,13,57,10.70
2018,11,21,13,58,10.70
2018,11,21,13,59,10.70
2018,11,21,14,00,10.70
2018,11,21,14,01,10.70
2018,11,21,14,02,10.80
2018,11,21,14,03,10.80
2018,11,21,14,04,10.70
2018,11,21,14,05,10.80
2018,11,21,14,06,10.80
2018,11,21,14,07,10.80
2018,11,21,14,08,10.80
2018,11,21,14,09,10.80
2018,11,21,14,10,10.80
2018,11,21,14,11,10.80
2018,11,21,14,12,10.80
2018,11,21,14,13,10.80
2018,11,21,14,14,10.80
2018,11,21,14,15,10.80
2018,11,21,14,16,10.80
2018,11,21,14,17,10.80
2018,11,21,14,18,10.70
2018,11,21,14,19,10.70
2018,11,21,14,20,10.70
2018,11,21,14,21,10.70
2018,11,21,14,22,10.60
2018,11,21,14,23,10.60
2018,11,21,14,24,10.60
2018,11,21,14,25,10.60
2018,11,21,14,26,10.60
2018,11,21,14,27,10.60
2018,11,21,14,28,10.60
2018,11,21,14,29,10.60
2018,11,21,14,30,10.60
2018,11,21,14,31,10.60
2018,11,21,14,32,10.60
2018,11,21,14,33,10.60
2018,11,21,14,34,10.60
2018,11,21,14,35,10.60
2018,11,21,14,36,10.60
2018,11,21,14,37,10.60
2018,11,21,14,38,10.60
2018,11,21,14,39,10.60
2018,11,21,14,40,10.60
2018,11,21,14,41,10.60
2018,11,21,14,42,10.60
2018,11,21,14,43,10.60
2018,11,21,14,44,10.60
2018,11,21,14,45,10.60
2018,11,21,14,46,10.60
2018,11,21,14,47,10.60
2018,11,21,14,48,10.60
2018,11,21,14,49,10.60
2018,11,21,14,50,10.60
2018,11,21,14,51,10.60
2018,11,21,14,52,10.50
2018,11,21,14,53,10.50
2018,11,21,14,54,10.50
2018,11,21,14,55,10.50
2018,11,21,14,56,10.40
2018,11,21,14,57,10.40
2018,11,21,14,58,10.40
2018,11,21,14,59,10.40
2018,11,21,15,00,10.40
2018,11,21,15,01,10.40
2018,11,21,15,02,10.40
2018,11,21,15,03,10.40
2018,11,21,15,04,10.40
2018,11,21,15,05,10.30
2018,11,21,15,06,10.30
2018,11,21,15,07,10.30
2018,11,21,15,08,10.30
2018,11,21,15,09,10.30
2018,11,21,15,10,10.30
2018,11,21,15,11,10.30
2018,11,21,15,12,10.30
2018,11,21,15,13,10.30
2018,11,21,15,14,10.30
2018,11,21,15,15,10.30
2018,11,21,15,16,10.20
2018,11,21,15,17,10.20
2018,11,21,15,18,10.20
2018,11,21,15,19,10.20
2018,11,21,15,20,10.20
2018,11,21,15,21,10.20
2018,11,21,15,22,10.20
2018,11,21,15,23,10.10
2018,11,21,15,24,10.10
2018,11,21,15,25,10.10
2018,11,21,15,26,10.10
2018,11,21,15,27,10.10
2018,11,21,15,28,10.10
2018,11,21,15,29,10.00
2018,11,21,15,30,10.00
2018,11,21,15,31,10.00
2018,11,21,15,32,10.00
2018,11,21,15,33,10.00
2018,11,21,15,34,10.00
2018,11,21,15,35,10.00
2018,11,21,15,36,10.00
2018,11,21,15,37,10.00
2018,11,21,15,38,10.00
2018,11,21,15,39,10.00
2018,11,21,15,40,10.00
2018,11,21,15,41,10.10
2018,11,21,15,42,10.10
2018,11,21,15,43,10.10
2018,11,21,15,44,10.10
2018,11,21,15,45,10.10
2018,11,21,15,46,10.10
2018,11,21,15,47,10.10
2018,11,21,15,48,10.10
2018,11,21,15,49,10.10
2018,11,21,15,50,10.00
2018,11,21,15,51,10.00
2018,11,21,15,52,10.00
2018,11,21,15,53,10.00
2018,11,21,15,54,10.00
2018,11,21,15,55,10.00
2018,11,21,15,56,10.00
2018,11,21,15,57,10.00
2018,11,21,15,58,10.00
2018,11,21,15,59,10.00
2018,11,21,16,00,10.00
2018,11,21,16,01,10.00
2018,11,21,16,02,9.90
2018,11,21,16,03,9.90
2018,11,21,16,04,9.90
2018,11,21,16,05,9.90
2018,11,21,16,06,9.90
2018,11,21,16,07,9.90
2018,11,21,16,08,9.90
2018,11,21,16,09,9.90
2018,11,21,16,10,9.90
2018,11,21,16,11,9.80
2018,11,21,16,12,9.90
2018,11,21,16,13,9.90
2018,11,21,16,14,9.90
2018,11,21,16,15,9.80
2018,11,21,16,16,9.90
2018,11,21,16,17,9.80
2018,11,21,16,18,9.80
2018,11,21,16,19,9.80
2018,11,21,16,20,9.80
2018,11,21,16,21,9.80
2018,11,21,16,22,9.80
2018,11,21,16,23,9.80
2018,11,21,16,24,9.80
2018,11,21,16,25,9.80
2018,11,21,16,26,9.80
2018,11,21,16,27,9.80
2018,11,21,16,28,9.80
2018,11,21,16,29,9.80
2018,11,21,16,30,9.80
2018,11,21,16,31,9.80
2018,11,21,16,32,9.80
2018,11,21,16,33,9.80
2018,11,21,16,34,9.80
2018,11,21,16,35,9.80
2018,11,21,16,36,9.80
2018,11,21,16,37,9.90
2018,11,21,16,38,9.90
2018,11,21,16,39,9.90
2018,11,21,16,40,9.90
2018,11,21,16,41,9.90
2018,11,21,16,42,9.90
2018,11,21,16,43,9.90
2018,11,21,16,44,9.90
2018,11,21,16,45,9.80
2018,11,21,16,46,9.80
2018,11,21,16,47,9.80
2018,11,21,16,48,9.80
2018,11,21,16,49,9.80
2018,11,21,16,50,9.80
2018,11,21,16,51,9.80
2018,11,21,16,52,9.80
2018,11,21,16,53,9.80
2018,11,21,16,54,9.80
2018,11,21,16,55,9.80
2018,11,21,16,56,9.80
2018,11,21,16,57,9.70
2018,11,21,16,58,9.70
2018,11,21,16,59,9.70
2018,11,21,17,00,9.70
2018,11,21,17,01,9.70
2018,11,21,17,02,9.70
2018,11,21,17,03,9.70
2018,11,21,17,04,9.70
2018,11,21,17,05,9.70
2018,11,21,17,06,9.70
2018,11,21,17,07,9.70
2018,11,21,17,08,9.70
2018,11,21,17,09,9.70
2018,11,21,17,10,9.70
2018,11,21,17,11,9.70
2018,11,21,17,12,9.70
2018,11,21,17,13,9.70
2018,11,21,17,14,9.70
2018,11,21,17,15,9.70
2018,11,21,17,16,9.70
2018,11,21,17,17,9.70
2018,11,21,17,18,9.70
2018,11,21,17,19,9.70
2018,11,21,17,20,9.70
2018,11,21,17,21,9.70
2018,11,21,17,22,9.70
2018,11,21,17,23,9.70
2018,11,21,17,24,9.70
2018,11,21,17,25,9.70
2018,11,21,17,26,9.70
2018,11,21,17,27,9.70
2018,11,21,17,28,9.70
2018,11,21,17,29,9.70
2018,11,21,17,30,9.70
2018,11,21,17,31,9.70
2018,11,21,17,32,9.70
2018,11,21,17,33,9.70
2018,11,21,17,34,9.70
2018,11,21,17,35,9.70
2018,11,21,17,36,9.70
2018,11,21,17,37,9.70
2018,11,21,17,38,9.70
2018,11,21,17,39,9.70
2018,11,21,17,40,9.70
2018,11,21,17,41,9.70
2018,11,21,17,42,9.60
2018,11,21,17,43,9.60
2018,11,21,17,44,9.60
2018,11,21,17,45,9.60
2018,11,21,17,46,9.60
2018,11,21,17,47,9.60
2018,11,21,17,48,9.60
2018,11,21,17,49,9.60
2018,11,21,17,50,9.60
2018,11,21,17,51,9.60
2018,11,21,17,52,9.60
2018,11,21,17,53,9.60
2018,11,21,17,54,9.60
2018,11,21,17,55,9.60
2018,11,21,17,56,9.60
2018,11,21,17,57,9.60
2018,11,21,17,58,9.60
2018,11,21,17,59,9.60
2018,11,21,18,00,9.60
2018,11,21,18,01,9.60
2018,11,21,18,02,9.60
2018,11,21,18,03,9.60
2018,11,21,18,04,9.60
2018,11,21,18,05,9.60
2018,11,21,18,06,9.60
2018,11,21,18,07,9.60
2018,11,21,18,08,9.60
2018,11,21,18,09,9.60
2018,11,21,18,10,9.60
2018,11,21,18,11,9.60
2018,11,21,18,12,9.60
2018,11,21,18,13,9.60
2018,11,21,18,14,9.60
2018,11,21,18,15,9.60
2018,11,21,18,16,9.60
2018,11,21,18,17,9.60
2018,11,21,18,18,9.60
2018,11,21,18,19,9.60
2018,11,21,18,20,9.60
2018,11,21,18,21,9.60
2018,11,21,18,22,9.60
2018,11,21,18,23,9.50
2018,11,21,18,24,9.60
2018,11,21,18,25,9.50
2018,11,21,18,26,9.50
2018,11,21,18,27,9.50
2018,11,21,18,28,9.50
2018,11,21,18,29,9.50
2018,11,21,18,30,9.50
2018,11,21,18,31,9.50
2018,11,21,18,32,9.50
2018,11,21,18,33,9.50
2018,11,21,18,34,9.50
2018,11,21,18,35,9.50
2018,11,21,18,36,9.50
2018,11,21,18,37,9.50
2018,11,21,18,38,9.50
2018,11,21,18,39,9.50
2018,11,21,18,40,9.50
2018,11,21,18,41,9.50
2018,11,21,18,42,9.50
2018,11,21,18,43,9.50
2018,11,21,18,44,9.50
2018,11,21,18,45,9.50
2018,11,21,18,46,9.50
2018,11,21,18,47,9.50
2018,11,21,18,48,9.50
2018,11,21,18,49,9.50
2018,11,21,18,50,9.50
2018,11,21,18,51,9.50
2018,11,21,18,52,9.50
2018,11,21,18,53,9.50
2018,11,21,18,54,9.50
2018,11,21,18,55,9.50
2018,11,21,18,56,9.50
2018,11,21,18,57,9.50
2018,11,21,18,58,9.50
2018,11,21,18,59,9.50
2018,11,21,19,00,9.50
2018,11,21,19,01,9.50
2018,11,21,19,02,9.50
2018,11,21,19,03,9.50
2018,11,21,19,04,9.50
2018,11,21,19,05,9.50
2018,11,21,19,06,9.50
2018,11,21,19,07,9.50
2018,11,21,19,08,9.50
2018,11,21,19,09,9.50
2018,11,21,19,10,9.50
2018,11,21,19,11,9.50
2018,11,21,19,12,9.50
2018,11,21,19,13,9.50
2018,11,21,19,14,9.50
2018,11,21,19,15,9.50
2018,11,21,19,16,9.50
2018,11,21,19,17,9.50
2018,11,21,19,18,9.50
2018,11,21,19,19,9.60
2018,11,21,19,20,9.60
2018,11,21,19,21,9.60
2018,11,21,19,22,9.60
2018,11,21,19,23,9.60
2018,11,21,19,24,9.60
2018,11,21,19,25,9.60
2018,11,21,19,26,9.60
2018,11,21,19,27,9.60
2018,11,21,19,28,9.60
2018,11,21,19,29,9.60
2018,11,21,19,30,9.60
2018,11,21,19,31,9.60
2018,11,21,19,32,9.60
2018,11,21,19,33,9.60
2018,11,21,19,34,9.60
2018,11,21,19,35,9.60
2018,11,21,19,36,9.60
2018,11,21,19,37,9.60
2018,11,21,19,38,9.60
2018,11,21,19,39,9.60
2018,11,21,19,40,9.60
2018,11,21,19,41,9.60
2018,11,21,19,42,9.60
2018,11,21,19,43,9.60
2018,11,21,19,44,9.60
2018,11,21,19,45,9.60
2018,11,21,19,46,9.60
2018,11,21,19,47,9.60
2018,11,21,19,48,9.60
2018,11,21,19,49,9.60
2018,11,21,19,50,9.60
2018,11,21,19,51,9.60
2018,11,21,19,52,9.70
2018,11,21,19,53,9.60
2018,11,21,19,54,9.60
2018,11,21,19,55,9.70
2018,11,21,19,56,9.70
2018,11,21,19,57,9.60
2018,11,21,19,58,9.60
2018,11,21,19,59,9.60
2018,11,21,20,00,9.60
2018,11,21,20,01,9.60
2018,11,21,20,02,9.60
2018,11,21,20,03,9.60
2018,11,21,20,04,9.60
2018,11,21,20,05,9.60
2018,11,21,20,06,9.60
2018,11,21,20,07,9.60
2018,11,21,20,08,9.60
2018,11,21,20,09,9.60
2018,11,21,20,10,9.60
2018,11,21,20,11,9.60
2018,11,21,20,12,9.60
2018,11,21,20,13,9.60
2018,11,21,20,14,9.60
2018,11,21,20,15,9.60
2018,11,21,20,16,9.60
2018,11,21,20,17,9.60
2018,11,21,20,18,9.60
2018,11,21,20,19,9.60
2018,11,21,20,20,9.60
2018,11,21,20,21,9.60
2018,11,21,20,22,9.60
2018,11,21,20,23,9.60
2018,11,21,20,24,9.60
2018,11,21,20,25,9.60
2018,11,21,20,26,9.60
2018,11,21,20,27,9.60
2018,11,21,20,28,9.60
2018,11,21,20,29,9.60
2018,11,21,20,30,9.60
2018,11,21,20,31,9.60
2018,11,21,20,32,9.60
2018,11,21,20,33,9.60
2018,11,21,20,34,9.60
2018,11,21,20,35,9.60
2018,11,21,20,36,9.60
2018,11,21,20,37,9.60
2018,11,21,20,38,9.60
2018,11,21,20,39,9.50
2018,11,21,20,40,9.50
2018,11,21,20,41,9.50
2018,11,21,20,42,9.60
2018,11,21,20,43,9.50
2018,11,21,20,44,9.50
2018,11,21,20,45,9.60
2018,11,21,20,46,9.60
2018,11,21,20,47,9.50
2018,11,21,20,48,9.60
2018,11,21,20,49,9.60
2018,11,21,20,50,9.60
2018,11,21,20,51,9.60
2018,11,21,20,52,9.60
2018,11,21,20,53,9.60
2018,11,21,20,54,9.60
2018,11,21,20,55,9.60
2018,11,21,20,56,9.60
2018,11,21,20,57,9.60
2018,11,21,20,58,9.60
2018,11,21,20,59,9.60
2018,11,21,21,00,9.50
2018,11,21,21,01,9.60
2018,11,21,21,02,9.60
2018,11,21,21,03,9.50
2018,11,21,21,04,9.50
2018,11,21,21,05,9.50
2018,11,21,21,06,9.50
2018,11,21,21,07,9.50
2018,11,21,21,08,9.50
2018,11,21,21,09,9.50
2018,11,21,21,10,9.50
2018,11,21,21,11,9.50
2018,11,21,21,12,9.50
2018,11,21,21,13,9.50
2018,11,21,21,14,9.50
2018,11,21,21,15,9.50
2018,11,21,21,16,9.50
2018,11,21,21,17,9.50
2018,11,21,21,18,9.50
2018,11,21,21,19,9.50
2018,11,21,21,20,9.50
2018,11,21,21,21,9.50
2018,11,21,21,22,9.50
2018,11,21,21,23,9.50
2018,11,21,21,24,9.50
2018,11,21,21,25,9.50
2018,11,21,21,26,9.50
2018,11,21,21,27,9.50
2018,11,21,21,28,9.50
2018,11,21,21,29,9.60
2018,11,21,21,30,9.50
2018,11,21,21,31,9.60
2018,11,21,21,32,9.60
2018,11,21,21,33,9.60
2018,11,21,21,34,9.60
2018,11,21,21,35,9.60
2018,11,21,21,36,9.60
2018,11,21,21,37,9.60
2018,11,21,21,38,9.60
2018,11,21,21,39,9.60
2018,11,21,21,40,9.60
2018,11,21,21,41,9.60
2018,11,21,21,42,9.60
2018,11,21,21,43,9.60
2018,11,21,21,44,9.60
2018,11,21,21,45,9.60
2018,11,21,21,46,9.60
2018,11,21,21,47,9.60
2018,11,21,21,48,9.60
2018,11,21,21,49,9.60
2018,11,21,21,50,9.60
2018,11,21,21,51,9.60
2018,11,21,21,52,9.60
2018,11,21,21,53,9.60
2018,11,21,21,54,9.60
2018,11,21,21,55,9.60
2018,11,21,21,56,9.60
2018,11,21,21,57,9.60
2018,11,21,21,58,9.60
2018,11,21,21,59,9.50
2018,11,21,22,00,9.50
2018,11,21,22,01,9.50
2018,11,21,22,02,9.50
2018,11,21,22,03,9.50
2018,11,21,22,04,9.50
2018,11,21,22,05,9.50
2018,11,21,22,06,9.50
2018,11,21,22,07,9.50
2018,11,21,22,08,9.50
2018,11,21,22,09,9.50
2018,11,21,22,10,9.50
2018,11,21,22,11,9.50
2018,11,21,22,12,9.50
2018,11,21,22,13,9.50
2018,11,21,22,14,9.50
2018,11,21,22,15,9.50
2018,11,21,22,16,9.50
2018,11,21,22,17,9.50
2018,11,21,22,18,9.50
2018,11,21,22,19,9.40
2018,11,21,22,20,9.40
2018,11,21,22,21,9.40
2018,11,21,22,22,9.40
2018,11,21,22,23,9.40
2018,11,21,22,24,9.40
2018,11,21,22,25,9.40
2018,11,21,22,26,9.40
2018,11,21,22,27,9.40
2018,11,21,22,28,9.40
2018,11,21,22,29,9.40
2018,11,21,22,30,9.40
2018,11,21,22,31,9.40
2018,11,21,22,32,9.40
2018,11,21,22,33,9.30
2018,11,21,22,34,9.30
2018,11,21,22,35,9.30
2018,11,21,22,36,9.30
2018,11,21,22,37,9.30
2018,11,21,22,38,9.30
2018,11,21,22,39,9.30
2018,11,21,22,40,9.30
2018,11,21,22,41,9.30
2018,11,21,22,42,9.30
2018,11,21,22,43,9.30
2018,11,21,22,44,9.30
2018,11,21,22,45,9.30
2018,11,21,22,46,9.30
2018,11,21,22,47,9.20
2018,11,21,22,48,9.20
2018,11,21,22,49,9.20
2018,11,21,22,50,9.20
2018,11,21,22,51,9.20
2018,11,21,22,52,9.20
2018,11,21,22,53,9.20
2018,11,21,22,54,9.20
2018,11,21,22,55,9.20
2018,11,21,22,56,9.20
2018,11,21,22,57,9.20
2018,11,21,22,58,9.20
2018,11,21,22,59,9.20
2018,11,21,23,00,9.20
2018,11,21,23,01,9.20
2018,11,21,23,02,9.20
2018,11,21,23,03,9.20
2018,11,21,23,04,9.20
2018,11,21,23,05,9.20
2018,11,21,23,06,9.20
2018,11,21,23,07,9.20
2018,11,21,23,08,9.20
2018,11,21,23,09,9.20
2018,11,21,23,10,9.20
2018,11,21,23,11,9.20
2018,11,21,23,12,9.20
2018,11,21,23,13,9.20
2018,11,21,23,14,9.20
2018,11,21,23,15,9.20
2018,11,21,23,16,9.20
2018,11,21,23,17,9.20
2018,11,21,23,18,9.20
2018,11,21,23,19,9.20
2018,11,21,23,20,9.20
2018,11,21,23,21,9.20
2018,11,21,23,22,9.20
2018,11,21,23,23,9.20
2018,11,21,23,24,9.20
2018,11,21,23,25,9.20
2018,11,21,23,26,9.20
2018,11,21,23,27,9.20
2018,11,21,23,28,9.20
2018,11,21,23,29,9.20
2018,11,21,23,30,9.20
2018,11,21,23,31,9.20
2018,11,21,23,32,9.20
2018,11,21,23,33,9.20
2018,11,21,23,34,9.20
2018,11,21,23,35,9.20
2018,11,21,23,36,9.20
2018,11,21,23,37,9.20
2018,11,21,23,38,9.20
2018,11,21,23,39,9.20
2018,11,21,23,40,9.20
2018,11,21,23,41,9.20
2018,11,21,23,42,9.20
2018,11,21,23,43,9.20
2018,11,21,23,44,9.20
2018,11,21,23,45,9.20
2018,11,21,23,46,9.20
2018,11,21,23,47,9.20
2018,11,21,23,48,9.10
2018,11,21,23,49,9.10
2018,11,21,23,50,9.10
2018,11,21,23,51,9.10
2018,11,21,23,52,9.10
2018,11,21,23,53,9.10
2018,11,21,23,54,9.10
2018,11,21,23,55,9.10
2018,11,21,23,56,9.10
2018,11,21,23,57,9.10
2018,11,21,23,58,9.10
2018,11,21,23,59,9.10
